This demonstration page uses our WeatherBlox Daily Observations layout. Learn more.

Left ArrowRight Arrow

39.29038, -76.61219

Hourly Observations for January 4, 2017

Temp ( °F °C ) Dew Point ( °F °C ) Humidity (%) Winds ( mph kmh ) Pressure ( in mb ) Visibility ( mi km ) Precip ( " mm )
12:54 am 00:54 undefined 45 7.2 42 5.6 90 90 undefined N/A 29.52 1000 N/A 0.00 0.00
1:54 am 01:54 undefined 46 7.8 43 6.1 89 89 undefined N/A 29.53 1000 N/A 0.00 0.00
2:54 am 02:54 undefined 46 7.8 43 6.1 89 89 undefined N/A 29.52 1000 N/A 0.00 0.00
3:54 am 03:54 undefined 46 7.8 43 6.1 89 89 undefined N/A 29.52 1000 N/A 0.00 0.00
4:54 am 04:54 undefined 47 8.3 43 6.1 86 86 undefined N/A 29.52 1000 N/A 0.00 0.00
5:54 am 05:54 undefined 46 7.8 43 6.1 89 89 undefined N/A 29.52 1000 N/A 0.00 0.00
6:54 am 06:54 undefined 49 9.4 42 5.6 77 77 undefined N/A 29.54 1000 N/A 0.00 0.00
7:54 am 07:54 undefined 51 10.6 42 5.6 71 71 undefined N/A 29.56 1001 N/A 0.00 0.00
8:54 am 08:54 undefined 52 11.1 43 6.1 72 72 undefined N/A 29.59 1002 N/A 0.00 0.00
9:54 am 09:54 undefined 51 10.6 44 6.7 77 77 undefined N/A 29.61 1003 N/A 0.00 0.00
10:54 am 10:54 undefined 53 11.7 45 7.2 74 74 undefined N/A 29.62 1003 N/A 0.01 0.25
11:54 am 11:54 undefined 54 12.2 43 6.1 67 67 undefined N/A 29.61 1003 N/A 0.00 0.00
12:54 pm 12:54 undefined 55 12.8 34 1.1 45 45 undefined N/A 29.61 1003 N/A 0.00 0.00
1:54 pm 13:54 undefined 55 12.8 32 0 42 42 undefined N/A 29.62 1003 N/A 0.00 0.00
2:54 pm 14:54 undefined 53 11.7 20 -6.7 27 27 undefined N/A 29.60 1002 N/A 0.00 0.00
3:54 pm 15:54 undefined 51 10.6 17 -8.3 26 26 undefined N/A 29.63 1003 N/A 0.00 0.00
4:54 pm 16:54 undefined 50 10 17 -8.3 27 27 undefined N/A 29.65 1004 N/A 0.00 0.00
5:54 pm 17:54 undefined 47 8.3 12 -11.1 24 24 undefined N/A 29.70 1006 N/A 0.00 0.00
6:54 pm 18:54 undefined 44 6.7 6 -14.4 21 21 undefined N/A 29.73 1007 N/A 0.00 0.00
7:54 pm 19:54 undefined 42 5.6 7 -13.9 23 23 undefined N/A 29.76 1008 N/A 0.00 0.00
8:54 pm 20:54 undefined 40 4.4 9 -12.8 28 28 undefined N/A 29.79 1009 N/A 0.00 0.00
9:54 pm 21:54 undefined 38 3.3 9 -12.8 30 30 undefined N/A 29.82 1010 N/A 0.00 0.00
10:54 pm 22:54 undefined 37 2.8 8 -13.3 30 30 undefined N/A 29.85 1011 N/A 0.00 0.00
11:54 pm 23:54 undefined 35 1.7 9 -12.8 34 34 undefined N/A 29.87 1012 N/A 0.00 0.00

Powered by AerisWeather